CDT,Max TemperatureF,Mean TemperatureF,Min TemperatureF,Max Dew PointF,MeanDew PointF,Min DewpointF,Max Humidity, Mean Humidity, Min Humidity, Max Sea Level PressureIn, Mean Sea Level PressureIn, Min Sea Level PressureIn, Max VisibilityMiles, Mean VisibilityMiles, Min VisibilityMiles, Max Wind SpeedMPH, Mean Wind SpeedMPH, Max Gust SpeedMPH,PrecipitationIn, CloudCover, Events, WindDirDegrees
2011-10-1,62,50,39,41,37,32,87,63,32,30.33,30.27,30.18,10,10,10,14,9,25,0.00,0,,3
2011-10-2,69,53,37,46,38,34,93,62,27,30.31,30.25,30.17,10,10,7,9,4,,0.00,0,,328
2011-10-3,78,61,44,48,44,39,87,57,30,30.24,30.19,30.16,10,10,7,13,5,,0.00,0,,322
2011-10-4,78,61,44,50,46,41,93,64,32,30.32,30.26,30.20,10,10,7,5,2,,0.00,0,,91
2011-10-5,82,66,50,54,48,45,88,57,30,30.27,30.22,30.16,10,10,10,12,3,10,0.00,0,,181
2011-10-6,84,68,51,55,50,46,88,55,29,30.26,30.21,30.16,10,10,10,14,5,18,0.00,0,,144
2011-10-7,87,73,59,57,53,50,77,53,29,30.30,30.23,30.18,10,10,7,21,11,28,0.00,0,,176
2011-10-8,84,70,57,59,53,46,88,57,28,30.32,30.27,30.23,10,10,10,17,8,23,0.00,0,,177
2011-10-9,82,68,53,52,47,39,88,51,21,30.35,30.29,30.20,10,10,10,14,6,16,0.00,0,,141
2011-10-10,80,66,51,54,50,48,88,62,32,30.21,30.14,30.04,10,9,5,12,5,,0.00,0,,136
2011-10-11,80,70,59,59,56,54,82,63,44,30.03,29.98,29.90,10,10,10,9,5,,0.00,3,,166
2011-10-12,78,68,57,63,56,52,88,71,44,29.88,29.79,29.68,10,10,3,15,6,26,0.14,5,Rain,138
2011-10-13,68,64,60,61,58,46,94,84,55,29.63,29.57,29.52,10,7,3,17,5,25,0.44,7,Rain,291
2011-10-14,62,56,51,46,45,43,82,66,48,29.74,29.66,29.60,10,10,10,25,13,36,0.00,3,,277
2011-10-15,64,55,46,43,40,34,81,57,32,29.93,29.87,29.78,10,10,10,25,15,34,0.00,0,,277
2011-10-16,62,56,50,48,42,37,88,64,42,29.89,29.83,29.76,10,10,7,21,9,25,0.01,2,Rain,266
2011-10-17,59,50,41,36,34,32,76,56,36,29.94,29.91,29.85,10,10,10,21,11,25,0.00,1,Rain,264
2011-10-18,55,48,41,39,37,34,87,69,47,29.87,29.83,29.82,10,10,10,16,7,18,0.00,1,,319
2011-10-19,50,48,46,41,40,37,81,73,62,29.82,29.76,29.70,10,10,7,28,15,33,0.07,8,Rain,356
2011-10-20,51,48,44,39,36,36,76,64,54,29.85,29.70,29.62,10,10,10,29,20,33,0.00,8,Rain,314
2011-10-21,59,46,33,37,33,32,93,66,36,30.11,30.04,29.92,10,10,10,15,8,20,0.00,0,,294
2011-10-22,69,54,39,43,38,32,81,60,33,30.08,30.05,29.99,10,10,10,10,5,,0.00,0,,228
2011-10-23,71,55,39,46,42,37,100,67,38,30.01,29.96,29.88,10,8,0,16,5,18,0.00,1,Fog,238
2011-10-24,68,56,44,52,43,34,94,67,28,30.14,30.04,29.89,10,10,5,13,8,,0.00,1,,267
2011-10-25,78,64,50,54,46,41,72,56,28,30.08,29.90,29.71,10,10,7,26,12,34,0.00,2,Rain-Thunderstorm,182
2011-10-26,60,54,48,57,47,43,94,85,76,29.97,29.89,29.73,10,8,3,16,9,21,0.01,7,Rain,4
2011-10-27,55,50,44,43,38,34,87,67,47,30.12,30.03,29.97,10,10,10,12,8,17,0.00,6,,335
2011-10-28,59,46,33,39,32,27,93,66,31,30.19,30.13,30.05,10,9,0,14,3,20,0.00,2,Fog,230
2011-10-29,57,45,33,36,31,25,87,60,29,30.11,30.07,30.03,10,10,10,17,8,22,0.00,1,,287
2011-10-30,57,49,41,45,35,27,82,62,48,30.10,30.00,29.93,10,10,7,32,13,41,0.07,4,Rain,179
2011-10-31,53,46,39,41,38,34,93,76,58,30.13,30.06,29.97,10,9,0,10,5,16,0.00,4,Fog,251